Regional Weather Roundup
Issued by NWS

Home | Current Version | Previous Version | Text Only | Print | Product List | Glossary On
Versions: 1 2 3 4 5 6 7 8 9 10 11 12 13 14 15 16 17 18 19 20 21 22 23 24 25 26 27 28 29 30 31 32 33 34 35 36 37 38 39 40 41 42 43 44 45 46 47 48 49 50
000
ASUS43 KMPX 252210
RWRMN
WEATHER ROUNDUP FOR MINNESOTA
NATIONAL WEATHER SERVICE TWIN CITIES/CHANHASSEN MN
500 PM CDT MON MAY 25 2015


NOTE: "FAIR" INDICATES FEW OR NO CLOUDS BELOW 12,000 FEET WITH NO
SIGNIFICANT WEATHER AND/OR OBSTRUCTIONS TO VISIBILITY. N/A MEANS
CURRENT SKY AND/OR WEATHER CONDITIONS ARE NOT AVAILABLE.

MNZ060>063-068>070-252300-
   Twin Cities Metro

CITY           SKY/WX    TMP DP  RH WIND       PRES   REMARKS
TWIN CITIES    PTSUNNY   72  59  63 SW13G22   29.73S
ST PAUL        PTSUNNY   71  60  68 W10       29.73S
CRYSTAL        CLOUDY    70  59  68 SW13      29.72R
BLAINE         CLOUDY    70  61  73 SW8G17    29.73R
LAKEVILLE      PTSUNNY   72  57  60 W13G21    29.73S
EDEN PRAIRIE   CLOUDY    70  59  68 W13G20    29.72S
SOUTH ST PAUL  CLOUDY    71  60  67 W6        29.73S
LAKE ELMO      CLOUDY    68  61  77 SW10      29.75S
$$
MNZ001>005-007-008-013>017-022>024-027-028-252300-
   Northwest Minnesota

CITY           SKY/WX    TMP DP  RH WIND       PRES   REMARKS
BEMIDJI        LGT RAIN  57  54  87 NE10      29.79R
HALLOCK        PTSUNNY   79  37  22 NE6       29.73F
ROSEAU         CLOUDY    73  46  38 SE5       29.75S
WARROAD        CLOUDY    72  52  49 S5        29.75F
THIEF RVR FALL CLOUDY    68  52  56 S5        29.79S
CROOKSTON      CLOUDY    70  54  56 S8        29.79R
FOSSTON        DRIZZLE   61  54  77 E6        29.79R
DETROIT LAKES  LGT RAIN  59  54  82 NE12      29.79R
MOORHEAD       CLOUDY    63  54  72 NE8       29.80R
PARK RAPIDS    LGT RAIN  59  53  80 NE13G22   29.76R
MAHNOMEN       CLOUDY    60  55  81 E9        29.79R
$$
MNZ006-009>011-018-025>026-252300-
   North Central Minnesota

CITY           SKY/WX    TMP DP  RH WIND       PRES   REMARKS
BAUDETTE       CLOUDY    68  51  54 SE8       29.76R
FLAG ISLAND    CLOUDY    61  55  82 S6        29.73F
INTL FALLS     LGT RAIN  61  53  75 SE7       29.79R
WASKISH        CLOUDY    63  55  77 CALM      29.78S
BIG FORK       LGT RAIN  59  55  88 NE7       29.78S
LONGVILLE      RAIN      55  54  94 N8        29.73R
GRAND RAPIDS   CLOUDY    55  52  88 N8G16     29.74R
CRANE LAKE     LGT RAIN  55  54  94 NE5       29.79S
ORR            CLOUDY    57  52  82 CALM      29.76R
COOK           LGT RAIN  57  54  88 NE3       29.78R
WALKER         LGT RAIN  56  55  93 NE6       29.77R
$$
MNZ012-019>021-037-252300-
   Northeast Minnesota

CITY           SKY/WX    TMP DP  RH WIND       PRES   REMARKS
DULUTH         LGT RAIN  53  51  93 E7        29.72R FOG
ELY            CLOUDY    57  52  82 NE8       29.73S
HIBBING        LGT RAIN  57  52  83 NE12G18   29.74R
EVELETH        LGT RAIN  57  55  94 NE10G16   29.74S
DULUTH HARBOR  DRIZZLE   46  45  93 NE8       29.74R
TWO HARBORS    LGT RAIN  54  48  82 NE8       29.71S
GRAND MARAIS     N/A     58  54  86 NE8G17    29.70S
G MARAIS ARPRT DRIZZLE   54  50  87 N8        29.73S
$$
MNZ029>031-032-039>041-046>048-054>057-064-252300-
   West Central Minnesota

CITY           SKY/WX    TMP DP  RH WIND       PRES   REMARKS
FERGUS FALLS   PTSUNNY   63  54  72 NE16G26   29.75S
WHEATON        CLOUDY    59  52  77 N13G18    29.78R
MORRIS         CLOUDY    63  57  82 N10       29.73R
ALEXANDRIA     CLOUDY    61  57  87 N13       29.73R
ELBOW LAKE     CLOUDY    61  54  77 NE16G29   29.74R
WADENA         RAIN      55  54  94 N22G30    29.73R
GLENWOOD       PTSUNNY   64  57  77 W12       29.72R
APPLETON       CLOUDY    66  57  72 W14       29.74R
BENSON         CLOUDY    66  55  68 NW12      29.72S
ORTONVILLE     CLOUDY    61  55  82 N12       29.76R
MADISON        PTSUNNY   64  55  72 W14       29.75S
WILLMAR        FAIR      68  61  77 W16       29.73F
$$
MNZ033>034-036-042>043-049>051-058-059-252300-
   Central Minnesota

CITY           SKY/WX    TMP DP  RH WIND       PRES   REMARKS
ST CLOUD       CLOUDY    67  57  70 SW14      29.70R
SAUK CENTRE    CLOUDY    65  57  75 W10       29.70R
PAYNESVILLE    CLOUDY    64  58  81 S13G20    29.72S
AITKIN         DRIZZLE   57  52  82 NE7       29.69R
PINE RIVER     HVY RAIN  55  55 100 N13G20    29.75R
BRAINERD         N/A    N/A N/A N/A MISG      29.70R
STAPLES        DRIZZLE   57  57 100 N8        29.70R
LONG PRAIRIE   PTSUNNY   64  55  72 W9        29.70R
LITTLE FALLS   CLOUDY    64  55  72 CALM      29.69R
LITCHFIELD     CLOUDY    66  61  82 SW10      29.73S
BUFFALO        CLOUDY    67  58  72 SW5       29.73S
MAPLE LAKE     CLOUDY    68  60  75 SW6       29.73S
$$
MNZ037-044-045-052-053-252300-
   East Central Minnesota

CITY           SKY/WX    TMP DP  RH WIND       PRES   REMARKS
PRINCETON      CLOUDY    66  57  72 SW6       29.71R
MORA           CLOUDY    64  57  77 SW7       29.72R
CAMBRIDGE      PTSUNNY   70  55  60 S9        29.70R
RUSH CITY      CLOUDY    67  57  71 S9        29.71R
MOOSE LAKE     DRIZZLE   54  52  94 NE6       29.69S
HINCKLEY       CLOUDY    66  59  77 SW13      29.70R
CLOQUET        DRIZZLE   52  50  93 E6        29.72R
MCGREGOR       CLOUDY    55  54  94 E5        29.71R
$$
MNZ071>073-080-081-089-090-097-098-252300-
   Southwest Minnesota

CITY           SKY/WX    TMP DP  RH WIND       PRES   REMARKS
MONTEVIDEO     PTSUNNY   70  57  64 NW10G16   29.74S
GRANITE FALLS  PTSUNNY   68  59  73 W16       29.75F
CANBY          CLOUDY    64  56  76 W9        29.77S
MARSHALL       PTSUNNY   70  54  56 W17G23    29.75S
REDWOOD FALLS  MOSUNNY   71  59  65 W13       29.73F
OLIVIA         MOSUNNY   68  55  64 W14G20    29.72F
PIPESTONE      MOSUNNY   68  59  73 W13G18    29.78R
WINDOM         MOSUNNY   73  57  56 W16G25    29.75S
WORTHINGTON    PTSUNNY   72  57  60 SW12      29.76S
JACKSON        CLOUDY    72  61  68 SW10G20   29.75F
TRACY          CLOUDY    69  60  70 W9        29.75S
SLAYTON        MOSUNNY   71  58  65 W12G21    29.77S
$$
MNZ065>067-074>077-082>085-091>093-252300-
   South Central Minnesota

CITY           SKY/WX    TMP DP  RH WIND       PRES   REMARKS
MANKATO        PTSUNNY   73  57  56 W22G29    29.73F
NEW ULM        MOSUNNY   72  61  68 W13       29.73S
FAIRMONT       PTSUNNY   75  55  50 SW21      29.74F
GLENCOE        PTSUNNY   71  61  70 SW10G18   29.72F
FARIBAULT      PTSUNNY   73  61  64 W12G18    29.74F
OWATONNA       PTSUNNY   66  61  82 S12       29.77R
WASECA         LGT RAIN  70  61  73 SW12      29.77R
ALBERT LEA     MOSUNNY   75  61  60 SW15G22   29.76S
$$
MNZ078>079-086>088-094>096-252300-
   Southeast Minnesota

CITY           SKY/WX    TMP DP  RH WIND       PRES   REMARKS
ROCHESTER      CLOUDY    68  63  84 SW17      29.79S THUNDER
RED WING       MOSUNNY   73  57  56 W10       29.74R
STANTON        MOSUNNY   72  60  66 SW6       29.73S
DODGE CENTER   LGT RAIN  70  63  78 SW10      29.79R
WINONA         PTSUNNY   70  59  68 SW7G16    29.77R
AUSTIN         MOSUNNY   72  63  73 W6        29.78S
PRESTON        PTSUNNY   68  63  85 NW6       29.80S
$$
ABBREVIATIONS USED IN REMARKS
   TC - TEMPERATURES IN CELSIUS
  WCI - WIND CHILL INDEX
   HX - HEAT INDEX
  VSB - VISIBILITY
$$


USA.gov is the U.S. government's official web portal to all federal, state and local government web resources and services.